Wind_Speed
33 35 37 40 43 46 48 48 49 48 48 47 47 47 47 47 48 49 48 47 47 47 46 45 44 43 43 42 40 39 38 38 37 36 35 34 33 33 31 30 29 28 27 26 25 25 24 24 24 24 23 23 23 23 23 24 25 25 26 26 26 27 27 27 28 25 23 27 31 32 35 37 38 39 41 40 40 41 42 44 45 45 44 44 43
30 33 35 37 39 43 46 49 51 51 50 49 49 49 48 48 49 50 49 49 49 48 47 46 45 45 44 43 42 40 40 39 39 37 36 35 34 34 33 31 30 29 28 27 26 25 25 25 25 24 24 24 23 24 24 24 25 26 27 27 27 28 29 30 31 31 28 28 32 34 36 39 40 41 43 43 43 43 44 45 46 47 46 46 45
25 28 31 34 36 39 42 46 48 50 51 52 52 51 51 50 51 51 50 50 50 50 49 47 47 46 46 44 43 42 41 41 40 39 38 37 36 35 35 32 31 30 29 27 26 25 26 25 25 25 25 25 24 24 25 25 26 27 28 28 28 29 31 32 33 35 34 33 34 37 38 40 42 44 46 46 46 46 47 47 48 49 49 49 48
24 25 26 28 31 34 37 40 43 46 49 51 53 54 53 52 52 52 52 51 51 51 50 49 48 48 47 45 43 43 42 42 41 40 39 38 37 37 37 34 32 31 29 28 26 26 26 26 26 26 26 26 25 25 26 26 27 28 29 29 30 30 32 34 36 38 39 38 38 40 42 43 44 46 48 49 48 49 50 50 51 52 52 52 50
26 26 26 27 27 28 30 33 36 39 43 46 50 53 55 55 54 54 53 52 51 51 51 50 49 48 47 46 44 43 43 43 43 42 40 40 40 39 38 35 32 31 30 28 27 27 27 27 26 27 27 27 27 26 27 27 28 29 30 31 31 32 33 36 38 39 41 42 42 42 44 45 46 47 49 51 51 51 52 52 53 54 55 54 52
30 30 29 29 29 28 28 28 29 31 34 38 43 48 53 56 57 57 55 53 52 52 51 50 50 49 47 46 45 44 45 45 44 43 42 42 42 41 40 36 33 32 31 29 28 28 28 28 27 27 28 28 28 28 28 28 29 30 32 32 33 34 35 37 39 41 42 44 45 45 46 47 48 49 50 53 54 54 54 55 55 56 58 58 55
31 33 33 33 32 31 31 30 30 29 29 31 35 40 46 51 55 58 58 56 54 52 52 51 50 49 48 47 46 46 46 46 46 45 45 45 43 43 41 37 34 33 32 30 29 29 29 29 28 28 28 28 29 29 29 29 30 32 33 34 34 35 36 38 40 42 43 44 45 47 48 48 49 51 52 53 55 56 57 58 57 57 60 61 59
24 28 31 33 34 34 33 33 33 32 32 31 32 35 38 43 48 53 58 58 56 53 52 51 50 49 48 47 47 47 48 48 47 47 47 46 45 45 42 37 34 34 33 31 30 30 31 30 29 28 29 29 30 30 30 31 31 32 34 35 36 36 38 39 41 43 44 45 46 47 49 49 50 52 53 54 56 57 58 60 61 61 62 63 61
19 21 23 26 30 33 35 35 35 35 35 35 35 35 36 38 41 46 52 56 57 55 53 53 52 50 49 48 48 49 50 49 48 48 48 47 46 46 42 37 35 35 34 33 31 32 32 31 30 29 29 30 31 31 31 32 32 33 34 35 36 37 38 40 42 43 45 46 46 48 50 51 51 53 54 56 58 59 60 62 63 64 65 65 62
18 18 18 19 23 27 30 33 35 36 36 37 37 37 37 37 39 42 45 50 53 55 55 55 54 51 50 50 50 51 51 49 49 49 48 48 48 47 42 38 37 36 35 34 33 33 34 32 30 30 30 31 31 31 32 33 33 34 35 36 37 38 39 41 42 44 46 47 47 49 51 52 53 54 56 58 60 62 62 63 65 66 68 67 64
18 18 18 19 20 22 24 27 30 33 35 37 38 38 38 38 39 39 41 45 48 52 55 56 55 52 51 51 51 51 51 50 49 49 49 50 50 46 43 40 38 38 37 35 34 35 35 33 31 31 31 32 32 32 33 33 34 35 35 36 37 38 40 42 44 45 47 48 49 50 53 55 55 56 58 60 62 63 64 65 67 68 69 69 68
17 18 19 20 20 21 22 24 26 28 31 34 37 39 40 40 39 39 39 42 45 49 53 55 55 54 52 52 52 51 51 51 50 49 51 52 49 46 43 40 39 39 38 36 36 36 35 34 32 32 32 32 33 33 34 34 35 36 36 36 37 39 41 44 45 47 48 50 51 52 54 57 58 58 60 62 64 65 66 67 68 70 69 69 69
19 19 19 20 21 22 23 24 25 26 28 31 33 36 39 40 40 39 38 39 43 47 51 53 55 55 53 52 52 52 52 51 50 51 53 52 49 46 43 41 40 40 38 37 37 37 36 34 32 32 33 33 34 34 34 35 35 36 36 36 38 39 41 44 47 48 49 51 53 54 55 58 60 60 62 65 67 68 69 69 69 70 70 69 70
21 21 21 21 23 23 24 25 26 26 28 29 31 33 35 36 37 38 39 39 41 44 48 51 54 54 53 52 52 51 51 51 51 52 52 50 48 46 43 41 40 40 39 37 37 38 37 34 33 33 33 34 35 35 35 35 36 36 36 36 37 39 41 45 47 49 50 52 54 55 56 58 61 62 63 65 68 69 71 72 71 70 71 72 71
22 22 22 23 24 24 25 27 27 28 29 29 31 32 32 33 35 36 38 40 41 42 45 49 52 53 53 52 52 51 51 51 52 51 50 49 48 45 42 40 40 40 39 38 38 39 37 35 33 33 34 35 36 36 36 36 36 35 36 36 37 38 41 44 47 49 50 52 54 55 56 58 61 63 64 66 69 70 72 73 72 71 72 73 71
23 23 23 24 25 25 26 27 28 29 30 30 31 31 31 33 34 35 37 38 40 42 44 47 50 52 53 53 52 51 51 51 51 49 48 49 47 43 40 39 40 41 40 39 39 39 37 35 34 33 34 36 37 37 37 37 36 36 36 37 38 39 41 44 46 48 50 51 53 55 57 59 61 64 65 67 69 70 71 71 70 70 72 72 70
24 25 24 25 26 26 26 27 28 29 30 31 31 30 31 32 33 35 36 37 37 40 42 45 49 51 52 53 52 51 50 50 49 48 48 48 45 40 38 39 41 41 40 40 40 39 37 36 35 34 34 35 36 37 38 38 37 37 38 38 39 40 41 44 46 47 49 51 52 54 57 59 62 64 64 65 66 67 69 70 69 69 70 70 70
25 25 24 25 27 26 26 27 27 28 29 30 31 31 30 31 32 33 35 36 37 37 40 44 48 50 52 52 51 50 50 49 48 48 47 46 43 38 36 39 42 42 40 40 40 39 37 36 35 34 34 35 36 37 38 38 38 38 39 40 41 42 43 44 46 47 49 51 52 55 57 59 61 62 62 63 63 65 68 69 68 67 68 68 68
25 25 25 26 27 27 27 27 27 28 29 29 30 31 30 30 31 33 34 36 37 37 39 43 47 50 51 51 50 50 49 49 48 47 45 43 40 36 37 40 41 41 40 41 40 39 37 36 36 35 34 34 36 37 38 38 38 38 40 42 43 43 45 46 47 49 50 52 53 55 58 60 61 62 62 62 63 64 66 66 65 65 66 66 65
26 26 26 27 27 27 28 28 28 29 29 29 30 31 30 30 31 32 34 36 36 37 39 43 46 49 51 51 51 50 49 49 48 46 42 39 36 35 37 39 40 39 40 40 40 39 37 36 36 36 34 34 36 37 37 38 38 39 41 43 44 45 46 47 49 50 52 54 55 57 60 62 63 63 63 63 64 64 64 64 63 63 63 63 61
27 27 27 27 27 27 28 29 29 30 30 30 31 31 30 30 31 32 34 35 35 36 38 42 46 49 51 52 52 51 49 48 45 42 38 34 33 35 36 38 38 39 40 40 40 39 37 37 37 36 34 35 36 36 36 37 38 39 41 43 44 46 48 49 50 52 54 55 57 60 62 63 64 64 64 65 65 65 63 62 61 60 59 60 60
29 28 28 27 27 27 27 28 29 30 31 31 32 31 30 30 31 32 34 35 35 36 38 40 44 48 51 52 52 51 48 46 43 38 34 32 33 34 35 36 37 39 40 40 39 39 38 37 37 36 35 35 36 36 36 36 37 39 41 42 44 46 48 50 51 53 55 56 59 61 63 64 65 65 66 66 65 63 61 59 58 57 57 57 58
29 28 28 28 27 27 27 27 29 30 31 32 33 32 31 31 32 33 33 34 35 35 37 39 42 46 50 51 51 49 47 44 39 35 32 32 33 33 34 35 37 38 39 38 38 39 39 37 36 36 35 35 35 35 35 36 37 39 40 42 44 46 48 50 51 53 55 57 60 62 63 64 65 66 65 64 62 60 59 58 57 56 56 55 55
30 29 29 28 28 28 27 27 28 29 31 32 33 33 33 33 33 34 33 33 33 34 35 37 40 44 48 50 50 48 44 40 36 33 32 33 32 32 33 34 36 37 37 37 38 39 39 38 36 35 35 35 35 34 35 36 37 38 40 42 44 46 48 49 51 53 55 58 60 62 62 63 64 64 63 61 60 59 59 58 57 56 55 54 52
31 31 30 29 29 29 29 28 28 29 30 31 32 33 34 34 34 34 34 32 31 32 34 36 38 42 46 49 48 45 41 37 33 31 32 32 31 31 32 33 35 36 35 35 37 39 39 38 37 35 34 34 34 34 34 35 37 38 39 42 44 46 47 49 51 53 56 58 60 61 62 62 62 61 60 59 59 59 59 58 56 54 53 51 48
32 31 31 30 30 30 30 29 28 29 29 30 31 32 34 35 35 34 34 31 29 29 32 34 36 40 44 47 46 43 38 34 31 32 32 31 29 30 31 32 33 34 34 34 36 37 39 39 37 35 34 34 34 33 34 35 36 37 39 42 44 45 47 49 51 53 56 58 59 60 60 60 59 57 57 57 57 57 57 56 54 51 50 48 46
33 32 31 31 32 31 31 30 30 29 29 30 30 31 32 35 35 34 32 29 26 28 31 33 34 37 41 44 43 40 35 32 31 31 30 28 28 29 30 31 31 32 32 32 34 37 39 38 36 34 34 33 33 33 34 34 34 36 38 41 43 44 46 48 51 53 55 57 58 58 58 57 55 54 54 55 55 54 54 53 51 49 48 47 45
34 33 32 32 32 32 32 31 31 30 30 30 30 30 32 34 35 33 31 28 25 27 29 30 31 33 37 40 39 36 33 31 29 28 26 26 27 27 29 30 31 31 31 32 34 37 37 37 35 34 33 33 33 33 33 33 34 35 37 40 41 43 46 48 50 52 54 55 56 56 54 53 51 52 52 51 51 50 50 49 48 47 46 45 44
35 34 33 33 32 32 32 32 31 31 31 30 30 30 31 33 34 33 30 28 26 26 27 28 30 33 36 37 35 32 29 26 24 25 26 26 27 28 29 31 31 31 31 31 33 34 34 35 35 34 33 33 32 32 32 32 33 35 37 39 41 43 45 47 49 51 52 53 53 53 51 49 48 49 49 48 47 46 46 46 45 44 43 42 42
36 35 34 34 33 32 32 32 31 31 31 30 30 29 30 31 33 33 30 28 27 27 26 26 29 32 35 34 32 29 27 25 26 28 28 28 28 28 29 29 29 29 29 30 30 31 32 33 34 34 34 33 32 31 31 31 32 34 36 38 40 42 44 46 49 50 51 51 51 49 47 46 46 45 45 45 44 44 44 43 43 42 41 40 39
38 36 35 35 34 33 32 32 31 31 30 30 29 29 29 29 31 32 30 28 27 27 26 25 28 31 33 34 34 32 31 30 30 30 28 27 27 27 27 27 27 27 27 27 27 28 30 32 33 34 34 33 32 31 31 31 32 34 35 36 39 41 44 46 47 48 49 48 47 45 43 43 43 43 43 43 43 42 42 41 40 38 38 38 37
38 37 36 35 34 34 33 32 31 30 30 29 29 28 28 28 29 30 30 28 27 26 25 25 27 30 32 34 36 35 34 32 31 30 28 27 26 25 25 26 26 25 25 24 25 26 28 30 31 33 33 32 31 30 30 30 32 33 34 36 37 40 43 45 46 46 47 46 44 42 41 41 41 42 42 42 42 41 40 39 38 36 35 35 35
38 37 36 35 35 34 33 32 31 30 29 28 27 27 27 26 28 29 30 29 27 25 25 25 26 29 32 34 35 35 33 31 30 29 27 25 24 23 24 25 24 23 23 23 23 25 26 27 29 30 31 31 30 29 29 30 31 33 34 35 37 40 43 44 44 45 45 44 41 39 39 39 40 40 41 41 40 40 39 38 36 35 34 33 33
37 36 35 35 34 33 33 32 30 29 28 26 26 26 26 25 27 29 29 29 27 24 23 22 24 27 30 32 34 33 30 29 29 28 26 23 22 22 23 23 22 22 21 22 23 23 23 24 25 27 28 28 27 27 28 29 30 32 33 35 38 40 42 42 43 43 42 40 38 37 37 38 39 39 39 39 38 37 37 36 35 33 32 32 32
37 36 36 36 35 34 33 32 30 28 26 25 26 26 25 25 26 26 27 27 25 23 21 20 20 24 28 30 31 30 28 27 27 27 24 21 20 21 21 21 20 20 21 21 21 21 21 21 22 23 24 24 24 25 26 27 29 31 32 35 38 39 40 41 41 41 39 37 35 35 36 37 38 38 38 37 37 36 35 35 34 33 32 32 32
37 37 37 37 36 34 32 30 29 27 25 25 26 26 24 24 24 24 23 24 24 22 21 20 20 22 25 28 29 27 26 26 26 25 22 19 18 18 18 18 18 19 20 19 19 18 18 19 19 20 21 21 22 23 24 26 28 29 32 35 37 38 38 39 40 39 37 35 33 34 35 36 37 37 36 35 35 35 34 33 32 33 33 33 33
38 37 37 37 36 33 31 29 28 26 24 24 26 26 24 23 22 21 21 21 21 21 21 21 21 23 25 26 26 25 25 26 27 24 20 16 15 15 15 16 16 17 17 17 17 16 17 17 17 18 19 19 21 22 24 25 27 29 32 35 36 37 37 38 38 37 35 33 32 33 34 35 35 35 34 34 33 33 32 31 31 32 33 34 34
36 35 34 33 32 30 28 27 25 24 23 23 24 25 24 22 20 19 19 19 20 21 21 20 21 25 26 26 26 26 27 27 25 20 15 13 14 15 15 15 15 14 14 15 15 15 16 16 16 16 17 18 19 21 22 24 26 29 32 33 34 35 36 36 36 35 32 31 31 32 32 33 33 33 33 33 32 31 30 30 30 30 31 32 33
31 29 28 27 27 25 24 23 22 21 20 20 21 23 23 21 19 18 18 17 18 20 20 20 22 26 27 27 27 27 27 25 20 15 13 14 15 15 14 13 13 13 13 14 14 14 15 15 15 15 15 17 18 20 21 23 27 29 31 32 33 34 35 35 34 32 30 29 30 30 31 31 31 32 32 31 31 30 29 29 30 30 30 31 32
25 25 24 23 22 22 20 19 19 18 17 17 19 22 21 18 16 17 17 16 17 19 20 21 23 25 25 25 25 24 23 20 17 15 16 16 15 14 13 12 12 12 13 13 13 13 13 13 13 14 15 16 17 18 21 24 27 29 29 30 32 33 34 33 32 30 28 28 29 29 29 29 30 30 30 30 29 29 29 29 30 31 31 31 32
22 21 19 18 18 18 17 16 16 16 16 17 18 19 16 14 15 16 17 16 16 18 20 22 23 24 25 25 24 22 21 19 17 16 16 14 13 12 12 12 12 12 13 13 12 12 12 12 12 13 14 15 16 18 21 24 26 27 28 30 31 32 32 32 30 28 27 27 28 28 28 28 28 29 29 28 28 28 28 29 30 31 32 32 33
19 16 15 14 15 14 14 14 13 14 15 16 16 15 13 13 15 17 16 15 16 19 21 22 24 25 25 24 22 20 18 17 15 14 13 11 11 12 12 13 13 13 12 12 11 11 11 11 12 13 13 14 16 19 22 24 25 26 27 29 30 31 31 30 28 26 26 26 26 26 26 27 28 28 27 27 27 27 28 29 30 31 32 32 33
15 13 12 12 12 12 12 11 11 12 13 14 14 13 13 14 16 17 16 15 17 19 21 22 24 24 23 21 19 17 15 14 13 12 11 11 11 12 13 14 14 12 11 11 10 10 11 11 11 11 12 14 16 19 21 23 24 25 27 28 29 30 29 28 26 25 25 25 25 25 25 26 27 27 26 26 26 26 27 28 29 30 31 31 32
13 13 12 11 11 12 10 9 9 11 12 12 12 12 13 15 17 17 15 16 18 21 22 23 24 23 21 18 16 14 13 13 12 12 11 11 12 13 14 14 13 12 11 11 11 11 11 10 10 10 12 14 17 19 21 22 23 25 26 27 28 28 28 26 24 23 24 24 24 24 25 26 26 26 25 25 25 26 27 28 28 29 30 30 31
13 13 13 12 11 10 9 8 9 12 13 12 12 12 13 15 17 16 15 17 19 21 22 23 22 21 18 16 15 14 14 14 13 12 11 12 12 14 14 13 12 12 12 12 11 11 10 9 9 10 12 14 17 18 20 21 22 24 26 26 27 27 26 24 23 23 23 23 23 23 24 25 26 25 24 24 25 26 26 27 28 28 29 29 30
13 13 13 11 10 8 8 8 10 12 12 12 12 12 14 16 17 15 16 19 20 21 21 21 20 18 16 16 16 15 15 14 12 11 11 11 13 14 14 13 13 13 13 12 11 10 8 7 8 10 12 14 16 18 19 20 22 24 25 25 26 25 24 22 22 22 22 22 22 23 24 25 25 24 23 24 24 25 26 27 27 28 28 28 28
13 12 11 10 9 9 8 9 11 12 12 12 13 13 15 17 17 15 17 20 20 20 20 19 18 17 17 17 16 16 14 13 11 11 11 12 13 14 14 14 14 14 13 12 11 8 7 7 8 10 13 14 16 17 18 20 22 23 24 24 24 24 22 21 21 21 21 22 23 24 25 25 24 23 23 23 24 25 26 27 27 28 28 28 28
14 10 9 9 9 9 9 11 12 12 12 13 14 15 17 18 16 15 18 20 20 19 18 18 18 18 18 17 16 15 14 12 11 10 11 12 13 14 14 15 15 14 13 12 9 7 6 7 8 11 12 14 16 17 18 19 21 22 22 23 23 22 21 20 20 21 21 22 23 24 25 24 23 22 22 22 23 24 25 26 27 27 27 28 28
14 10 8 9 9 10 11 12 13 13 13 14 15 16 19 19 16 16 19 19 18 18 18 18 18 18 17 16 15 14 12 11 10 11 12 13 14 15 15 16 15 15 13 10 7 5 6 7 9 10 12 14 15 16 17 19 21 21 21 22 22 21 19 19 20 21 22 23 23 24 24 24 23 22 21 22 23 24 24 25 26 26 27 27 28
15 11 9 10 11 12 12 13 14 14 15 15 15 17 20 18 15 17 19 18 18 18 18 18 18 17 16 15 14 13 12 11 12 12 13 14 15 16 17 16 16 14 11 8 6 5 6 7 8 10 12 14 15 16 17 19 20 20 20 20 20 19 18 19 20 21 22 23 24 24 24 24 22 21 21 21 22 23 24 25 25 26 26 27 28
16 13 11 11 11 12 12 14 15 16 16 16 16 18 20 16 15 18 18 18 18 19 19 19 18 16 16 15 15 14 13 12 12 12 14 16 17 18 18 17 15 13 10 7 6 5 6 6 8 10 12 13 14 15 17 19 20 20 19 19 19 18 17 18 20 21 22 23 24 24 24 23 21 20 20 20 21 23 24 24 25 25 25 26 27
Wind_Direction
251 249 247 246 245 244 243 243 242 241 242 244 246 248 250 251 251 252 251 252 253 254 255 257 257 258 259 260 261 263 264 264 263 264 264 263 262 261 261 261 262 263 262 263 265 266 269 271 275 280 285 291 295 297 300 302 305 307 308 310 311 312 315 317 319 325 331 330 329 328 326 325 325 323 323 325 327 327 327 327 326 325 323 320 319
256 252 250 249 248 246 245 244 243 242 241 241 243 245 248 250 252 252 252 252 253 253 255 256 256 257 257 258 260 261 262 262 261 262 261 260 259 259 258 258 259 259 260 261 262 264 267 269 274 279 283 289 294 297 299 301 302 304 306 307 309 311 313 316 319 322 326 329 328 327 326 325 324 323 322 324 326 326 326 326 326 326 323 320 319
266 262 258 255 253 251 250 249 248 247 245 244 242 242 244 248 251 253 253 252 252 253 254 255 255 256 256 257 258 259 260 260 260 260 259 257 256 255 256 256 256 256 257 259 260 262 265 268 272 277 282 287 292 296 298 299 300 301 303 305 306 309 311 313 317 319 322 326 327 326 325 324 324 323 323 324 326 325 325 325 326 326 323 321 319
273 271 269 265 261 259 257 256 254 253 251 249 246 244 243 244 248 251 253 252 253 253 253 254 254 255 255 256 257 258 259 259 258 258 256 254 253 253 254 255 253 253 255 256 258 260 263 267 271 275 280 285 290 295 297 298 299 299 301 303 305 308 310 312 315 317 320 323 325 326 325 324 324 324 322 323 325 324 324 324 325 324 323 321 319
270 271 271 270 270 268 265 263 261 260 257 255 252 249 246 244 245 248 251 252 253 253 253 253 254 255 256 256 257 257 257 257 256 255 253 252 252 252 254 253 251 251 253 254 255 259 262 265 269 273 278 283 288 292 296 298 299 299 300 302 305 307 309 311 313 315 318 320 322 324 323 323 323 323 322 322 324 324 323 323 323 323 322 321 320
268 268 268 269 271 272 272 271 269 266 263 260 257 254 250 247 245 245 248 250 251 252 253 253 253 254 254 255 255 255 255 255 254 253 251 250 250 251 253 252 249 249 250 251 253 257 261 264 267 271 276 281 286 290 294 297 298 298 299 301 303 305 308 310 311 313 315 318 320 322 322 321 321 321 322 322 323 323 323 322 322 322 321 320 320
273 270 268 268 268 270 271 272 271 270 268 265 261 258 255 251 248 246 246 247 248 250 252 252 252 253 253 253 254 254 254 253 252 250 249 248 249 250 252 251 248 247 247 248 251 255 260 263 266 270 274 279 284 288 292 296 298 299 299 300 302 305 307 309 311 312 314 316 319 320 320 320 320 321 322 322 322 322 322 321 320 320 320 320 320
285 278 274 271 270 269 269 268 268 269 268 267 265 263 260 257 253 250 247 246 246 248 250 251 251 251 252 252 252 252 252 251 250 249 248 248 249 251 252 250 247 245 245 246 249 254 258 261 264 268 273 277 281 286 290 294 297 299 300 301 303 305 308 309 311 312 314 315 318 318 318 319 320 320 321 321 321 321 321 321 320 320 319 319 319
301 293 287 282 276 273 271 269 269 269 268 267 267 266 265 262 259 256 252 248 246 246 248 249 250 250 250 250 250 250 250 250 249 248 248 248 250 251 252 249 246 244 243 244 247 252 256 259 263 267 272 276 279 284 288 292 295 299 301 302 304 306 309 310 312 313 314 315 317 317 317 318 320 321 322 322 321 321 321 320 320 320 318 318 319
305 303 301 295 287 282 279 276 274 272 271 271 270 269 269 267 265 261 257 253 249 246 246 248 249 249 249 248 248 248 249 249 248 247 247 248 249 251 252 249 245 243 242 243 246 251 254 257 262 267 271 274 278 283 286 290 294 298 300 302 305 308 310 311 312 313 314 316 317 317 317 319 320 322 322 322 321 321 321 319 319 319 318 318 318
304 302 301 298 295 293 289 285 280 278 276 274 273 272 272 271 269 266 263 259 253 248 246 247 248 248 247 246 247 247 248 248 247 247 247 248 250 252 253 250 246 243 242 242 246 249 252 256 260 265 270 274 277 281 285 289 293 297 300 303 306 309 310 311 312 313 314 316 318 319 319 319 321 323 323 321 321 321 320 319 319 319 319 318 318
309 305 300 297 297 295 292 289 285 282 280 277 274 273 271 270 270 269 267 264 259 253 248 246 246 246 245 245 246 247 248 247 247 247 247 248 250 253 253 250 246 244 243 243 245 249 251 254 259 264 269 273 276 280 284 288 292 296 300 304 307 309 310 311 312 313 315 317 318 320 321 321 322 324 323 321 321 320 320 320 320 320 319 318 317
313 311 306 300 297 295 293 292 289 288 285 282 279 276 273 272 272 271 270 266 261 257 251 247 244 244 245 245 245 247 248 248 248 247 247 248 251 253 253 250 246 244 244 244 245 248 250 253 258 263 268 272 276 279 283 287 292 296 301 305 308 309 310 311 312 314 317 319 320 322 323 322 323 324 323 321 321 320 319 320 320 319 318 317 316
310 311 309 304 300 297 295 295 294 292 289 286 284 282 279 277 275 272 270 267 262 258 253 249 246 245 245 245 245 247 248 249 249 248 248 250 252 254 254 251 247 246 245 245 246 248 249 252 257 263 268 272 275 278 282 286 291 296 301 305 308 310 311 311 313 317 319 320 321 323 324 323 323 323 322 321 320 320 319 319 320 319 318 317 317
303 305 306 305 304 301 297 296 295 294 293 291 289 287 285 282 277 273 270 269 267 261 254 248 246 246 245 245 245 247 248 249 249 249 249 251 253 254 254 252 249 247 246 245 246 248 249 251 256 262 267 272 275 279 282 286 291 295 300 304 307 310 312 312 314 318 319 320 322 323 323 323 322 321 322 321 321 320 320 321 321 319 317 317 317
295 297 300 301 301 300 299 297 295 295 295 295 295 293 289 284 280 275 271 269 267 264 256 248 244 244 244 245 245 247 248 250 251 250 251 252 252 253 254 254 251 248 246 245 246 248 248 251 255 260 266 272 276 279 283 286 291 295 299 303 307 311 312 312 315 317 318 320 321 322 322 322 321 322 322 322 322 321 320 320 320 318 316 315 316
287 289 294 295 295 297 298 298 297 295 294 295 296 297 293 287 282 278 274 270 267 264 260 253 246 242 243 244 245 247 249 250 252 251 251 252 252 253 254 254 251 247 245 245 246 248 248 251 254 259 265 270 274 279 283 287 291 295 299 303 307 310 312 313 315 316 318 320 321 321 322 322 322 323 324 323 322 320 319 319 319 317 316 316 316
281 285 290 291 291 294 296 297 297 296 295 295 294 294 294 291 285 279 275 272 267 261 257 252 247 243 242 243 244 247 249 250 251 251 250 251 252 252 253 253 250 248 246 245 246 247 248 251 255 259 264 268 273 278 283 287 291 295 299 303 307 310 312 313 315 316 318 320 321 321 322 322 323 324 324 323 321 320 319 319 319 317 317 318 318
281 284 288 289 290 292 294 295 296 296 296 295 292 291 292 292 288 282 276 272 268 261 254 249 246 243 241 241 242 244 247 248 249 249 248 249 251 253 254 252 249 248 247 246 247 247 249 252 256 260 264 268 273 277 282 287 292 296 300 303 307 311 313 314 316 317 319 321 321 322 322 323 324 324 324 323 322 320 319 319 319 319 319 319 320
283 284 286 288 290 291 292 294 295 295 296 296 294 292 291 291 289 285 278 274 270 265 257 251 246 242 240 239 241 243 245 246 248 248 248 249 252 253 254 253 251 248 247 246 246 247 249 253 258 262 265 269 273 277 282 287 292 296 300 303 307 312 314 315 317 318 320 321 322 322 324 325 325 325 324 323 322 321 321 321 321 321 320 321 322
284 284 285 288 290 290 291 293 294 295 296 297 297 296 293 290 288 284 279 274 270 266 262 255 248 243 240 238 239 241 243 245 246 247 247 249 252 254 254 254 252 249 247 246 246 247 249 253 258 262 266 270 274 278 283 288 293 296 300 304 309 313 314 316 318 320 321 322 322 324 325 326 326 325 324 324 323 323 323 323 323 323 323 324 324
285 284 285 287 289 290 291 292 293 294 295 297 298 299 296 291 286 283 280 276 271 268 264 258 251 245 241 239 239 241 244 245 246 248 249 250 252 254 255 253 251 250 249 247 246 246 248 253 258 263 267 271 275 280 285 289 293 297 301 305 310 313 315 317 319 320 321 322 323 325 326 326 326 326 325 325 326 326 326 326 327 327 326 326 325
286 285 285 286 288 289 290 291 292 293 294 295 297 299 299 294 286 282 279 277 272 269 267 263 255 247 242 240 240 242 245 247 249 251 251 251 253 255 254 253 251 251 251 248 246 246 248 252 257 263 268 272 277 281 286 290 293 297 302 307 311 313 315 317 319 320 322 323 324 326 327 327 326 326 327 328 329 329 329 329 329 328 327 326 326
289 287 286 287 288 289 290 292 293 293 294 294 296 299 301 298 290 283 280 276 272 269 269 265 259 250 243 240 240 242 245 248 250 251 250 251 253 255 254 252 252 253 253 250 246 246 248 251 256 261 267 273 277 281 286 290 294 298 303 308 311 313 315 318 319 320 322 324 325 327 327 327 327 328 330 331 331 331 330 330 330 329 328 328 329
293 291 289 289 288 288 290 292 294 295 295 296 297 299 301 300 294 287 281 276 271 269 269 266 261 253 246 241 240 241 244 246 248 248 248 250 254 256 254 252 253 256 255 251 247 246 248 250 254 260 267 272 277 281 286 290 295 300 305 309 311 313 316 318 319 321 323 325 326 327 327 328 330 331 332 333 333 333 333 333 333 333 332 331 331
296 294 292 291 289 289 290 292 295 297 299 299 299 300 301 302 298 289 282 277 271 268 268 266 260 253 247 242 239 240 242 244 245 245 245 249 255 256 254 253 255 258 258 253 249 247 248 250 253 260 266 272 276 281 286 290 295 300 305 308 311 314 316 318 319 322 324 326 327 327 328 330 332 334 335 336 336 336 336 336 337 336 335 334 334
297 295 292 290 289 290 291 292 294 297 300 302 302 302 301 302 300 292 283 277 271 267 267 265 261 256 249 243 239 238 240 241 242 243 245 251 257 257 255 256 258 260 259 255 250 248 248 250 253 259 265 271 276 281 285 290 295 301 305 308 311 314 316 318 320 322 325 326 327 327 330 332 334 336 338 339 339 339 339 339 340 340 339 338 338
298 296 292 289 288 290 291 291 292 295 299 302 303 303 302 302 302 295 284 273 266 262 264 265 263 258 250 243 238 237 238 240 242 243 246 251 254 254 254 256 258 259 258 255 251 249 249 250 253 258 264 270 275 280 285 290 296 302 306 308 311 314 316 318 321 324 325 326 326 329 332 334 337 339 340 341 341 341 341 342 343 344 343 343 343
298 296 293 289 287 287 289 290 291 293 296 299 302 302 301 302 302 297 286 274 265 260 259 261 258 252 245 240 236 235 236 239 239 239 241 245 247 247 250 254 258 260 259 256 254 252 251 251 253 257 263 268 273 279 284 291 297 303 306 309 311 314 316 319 322 324 325 325 327 331 334 336 339 341 341 342 343 343 343 344 345 346 346 346 347
297 296 294 290 287 285 285 287 289 290 293 296 299 301 301 301 301 297 288 277 267 260 258 256 252 246 240 234 229 227 228 227 225 228 234 240 242 246 251 257 262 264 263 260 259 256 254 253 254 257 262 267 272 278 284 291 298 302 306 309 311 314 316 320 323 323 324 326 329 333 335 338 341 342 341 342 344 344 344 345 346 348 348 349 351
296 295 293 291 289 286 284 284 287 288 290 293 297 299 300 300 299 296 290 280 268 260 257 255 251 246 240 230 221 220 220 220 221 227 235 240 245 250 256 262 265 266 265 264 262 260 258 256 256 258 261 266 272 277 284 292 297 301 305 308 311 314 318 321 323 323 325 329 331 334 337 340 341 342 341 342 343 344 344 346 348 350 350 351 353
294 293 292 291 289 286 284 283 285 285 287 290 294 298 300 300 298 296 292 285 274 262 256 253 250 245 238 229 222 219 219 218 220 227 235 241 247 254 258 262 264 265 265 266 265 263 261 259 258 259 261 265 270 277 285 292 296 300 305 309 312 316 319 321 322 324 327 331 333 335 338 340 341 341 340 341 342 343 345 347 349 352 353 353 354
293 292 291 289 288 286 283 282 282 282 283 286 290 295 298 298 296 293 291 288 280 265 254 252 249 243 235 228 223 221 221 220 221 227 235 242 249 256 260 262 263 264 265 267 266 265 263 261 259 260 261 264 270 278 285 291 296 302 306 310 315 318 320 321 324 327 330 332 334 336 339 340 340 340 340 341 343 344 345 348 350 352 354 355 356
292 291 289 287 286 284 281 280 279 278 279 280 284 289 293 295 294 292 291 291 284 266 251 249 249 244 236 227 221 221 222 222 223 228 235 244 253 259 262 262 263 264 265 265 264 264 263 261 260 260 262 266 272 279 285 291 298 303 308 313 317 320 321 323 326 329 331 332 334 337 339 339 339 340 340 341 343 345 346 347 350 352 355 356 357
291 290 287 285 284 281 278 277 276 275 275 276 279 283 287 290 291 289 290 291 283 263 245 240 243 243 236 226 219 219 221 221 223 229 237 248 259 264 265 265 265 265 263 261 260 261 262 262 261 262 264 268 273 279 285 293 299 305 310 315 318 320 322 325 328 330 331 333 334 337 339 339 339 340 341 342 344 346 347 348 349 352 355 356 358
289 288 286 284 282 278 274 271 271 271 271 273 277 280 283 287 287 286 288 289 280 258 237 228 229 232 228 221 217 218 219 220 223 230 240 255 267 270 270 269 267 262 258 257 257 260 263 264 264 264 266 269 273 279 288 295 301 308 314 317 319 321 324 327 329 330 332 333 335 337 339 340 340 341 342 343 344 346 347 349 350 351 353 355 357
288 286 284 281 279 275 269 265 265 265 265 270 275 279 283 286 285 284 287 287 276 253 233 223 218 215 213 213 213 214 215 218 223 231 244 261 271 270 267 264 259 255 253 253 256 260 264 265 265 265 265 267 274 283 292 299 305 312 316 318 320 323 326 328 330 331 333 334 336 338 340 340 341 342 343 344 345 346 347 349 351 352 353 354 356
287 285 282 280 278 271 263 258 258 258 260 267 276 282 285 285 284 283 284 283 271 249 230 218 211 207 204 204 207 209 212 217 224 234 251 264 264 261 259 256 252 248 248 251 256 261 263 262 261 260 261 268 278 287 295 303 310 315 318 320 322 325 328 330 331 332 333 335 337 339 341 341 341 342 344 345 346 347 348 349 351 353 353 354 354
288 286 283 280 274 264 254 250 250 252 256 264 274 282 286 285 284 282 280 277 267 248 227 211 206 205 204 204 207 210 213 219 226 237 251 255 254 254 255 252 247 245 246 250 256 259 258 256 254 255 261 272 283 292 301 309 314 317 319 322 325 327 329 331 332 333 334 335 337 340 342 342 343 343 344 345 346 347 348 349 351 354 355 355 356
291 290 286 278 267 255 248 244 244 247 252 260 270 281 288 291 289 284 276 269 259 241 220 204 200 203 205 208 211 213 215 218 225 235 244 248 250 252 251 247 243 242 244 248 251 251 248 246 248 255 266 277 288 298 307 313 316 319 322 324 327 329 331 333 333 334 335 336 339 341 342 343 344 344 345 346 347 348 349 350 352 353 355 357 358
296 292 284 271 257 249 245 242 240 243 250 259 271 282 291 296 295 287 276 265 250 231 212 198 196 200 204 206 209 211 212 215 222 233 241 247 250 249 245 240 237 237 239 242 241 238 236 239 247 259 272 284 295 306 312 316 318 322 324 327 329 332 333 334 334 335 336 338 340 342 344 344 345 345 346 347 348 348 350 352 353 354 355 356 357
298 290 277 263 254 249 245 239 238 243 250 262 276 285 289 294 294 284 272 257 238 220 205 197 196 201 204 205 206 207 209 214 222 231 237 242 243 240 234 230 229 232 234 234 231 227 229 238 251 264 279 292 303 311 315 318 321 324 327 330 332 334 335 335 336 336 337 339 342 344 345 345 346 347 347 348 349 350 352 353 354 354 355 355 355
299 288 275 266 261 255 248 240 237 242 253 266 278 284 287 292 290 278 263 244 223 209 200 198 200 204 205 206 206 205 207 213 219 225 230 234 233 230 227 225 225 227 226 223 220 220 228 241 256 271 287 301 309 314 318 321 324 327 330 333 335 336 336 337 337 338 339 341 344 346 346 346 346 348 349 350 351 352 354 355 355 355 356 356 355
304 291 279 272 265 258 250 238 235 246 259 268 274 279 287 292 288 275 254 230 213 204 199 199 204 206 206 204 203 202 204 208 213 218 225 228 227 225 223 221 220 218 216 213 213 219 230 245 263 280 295 306 312 317 321 324 327 331 333 335 337 337 337 338 339 340 341 344 346 347 347 347 348 349 350 351 353 354 355 356 357 357 357 357 357
308 300 287 278 269 259 247 237 244 258 266 268 270 278 288 292 285 268 242 220 209 203 201 202 205 207 205 202 200 199 200 203 209 217 223 226 225 222 219 215 211 209 207 207 210 220 233 249 270 288 302 310 316 321 324 327 331 334 336 337 338 339 339 340 341 342 344 347 349 348 348 348 349 351 352 353 354 355 357 357 358 358 359 359 359
304 303 298 288 274 259 246 245 257 267 270 270 274 283 291 292 283 260 229 213 207 203 202 203 205 205 204 203 200 198 198 201 209 217 222 223 222 217 211 206 203 202 202 204 211 221 235 256 279 295 307 314 319 324 328 331 334 337 338 339 340 341 341 343 344 345 347 350 350 349 349 349 351 352 354 355 356 357 358 358 359 360 1 1 1
306 302 298 292 281 270 261 259 262 266 269 273 279 286 291 291 280 250 220 208 205 202 200 200 200 202 204 204 199 196 196 201 209 217 222 222 217 208 201 198 199 198 198 203 210 220 239 266 287 301 310 318 324 328 331 334 337 339 340 341 342 343 344 346 347 348 351 352 351 350 350 350 351 354 356 356 357 358 358 359 0 1 1 2 3
313 302 286 279 274 264 256 256 259 263 269 275 280 285 291 289 273 239 213 204 202 199 195 195 198 202 204 202 197 194 196 201 210 219 223 219 209 199 194 194 195 195 197 202 208 220 246 274 293 306 315 323 329 332 334 337 340 341 341 343 344 345 347 349 349 351 353 353 352 351 350 350 352 355 357 357 358 359 360 0 1 1 2 3 4
310 300 276 265 262 254 250 256 262 266 271 275 280 286 291 286 263 227 206 199 197 193 190 192 198 202 201 198 194 192 195 202 211 216 215 207 198 193 192 193 193 193 196 199 205 223 256 281 299 312 321 328 332 334 337 340 342 342 343 344 346 347 349 350 351 353 354 354 352 351 351 352 354 356 358 358 359 359 1 2 2 2 3 4 5
299 290 267 258 262 262 260 261 262 264 269 275 281 288 290 281 249 214 199 193 190 187 187 192 198 199 198 194 192 192 197 205 210 210 204 196 191 191 191 190 190 191 192 194 205 232 264 288 305 319 328 332 334 336 340 343 343 343 343 345 346 349 351 352 353 354 354 353 352 352 352 354 356 357 359 359 360 0 1 3 3 3 4 5 6
287 283 267 255 257 260 259 258 259 264 270 275 280 287 288 272 231 204 193 188 184 184 187 192 196 196 194 192 193 196 202 208 210 205 195 189 188 189 189 188 188 188 188 194 213 242 271 296 314 327 332 333 335 339 343 345 344 343 343 344 347 350 351 353 354 355 354 353 353 353 354 355 357 359 360 1 1 2 2 3 4 4 5 7 8
Height
3006 3006 3006 3007 3008 3009 3010 3011 3012 3013 3015 3017 3018 3020 3020 3021 3022 3023 3023 3024 3024 3025 3026 3027 3027 3027 3027 3028 3028 3028 3028 3027 3027 3026 3025 3024 3024 3023 3022 3022 3021 3021 3021 3020 3020 3020 3019 3018 3018 3017 3016 3015 3013 3012 3010 3008 3006 3004 3002 3000 2998 2995 2994 2992 2991 2991 2991 2988 2984 2981 2977 2973 2970 2966 2962 2960 2957 2954 2950 2946 2943 2939 2936 2933 2930
3002 3002 3002 3002 3003 3004 3004 3005 3006 3007 3008 3010 3012 3013 3014 3015 3016 3016 3018 3018 3019 3019 3020 3021 3022 3022 3022 3023 3023 3023 3023 3022 3022 3022 3021 3020 3019 3019 3018 3018 3017 3017 3017 3017 3017 3016 3016 3015 3015 3014 3013 3012 3010 3009 3007 3005 3003 3001 2999 2997 2995 2992 2989 2987 2985 2984 2985 2984 2981 2977 2974 2970 2966 2962 2957 2954 2951 2948 2945 2942 2938 2935 2931 2928 2925
2998 2998 2998 2999 2999 2999 2999 3000 3001 3002 3003 3004 3005 3006 3008 3009 3010 3010 3012 3012 3013 3013 3014 3016 3016 3016 3016 3017 3018 3018 3018 3018 3017 3017 3016 3015 3015 3014 3013 3013 3013 3013 3013 3013 3013 3013 3013 3012 3012 3011 3010 3009 3008 3006 3004 3002 3001 2998 2997 2995 2992 2989 2986 2983 2981 2978 2978 2978 2976 2973 2969 2966 2962 2957 2951 2948 2945 2942 2939 2936 2932 2929 2925 2922 2919
2995 2995 2995 2995 2995 2995 2995 2996 2996 2997 2997 2998 2999 3000 3001 3002 3003 3004 3005 3006 3006 3007 3008 3010 3010 3010 3011 3012 3013 3013 3013 3013 3013 3012 3012 3011 3010 3009 3008 3008 3008 3008 3009 3009 3009 3009 3009 3009 3009 3008 3007 3006 3005 3003 3001 2999 2998 2996 2994 2992 2989 2986 2983 2980 2977 2974 2972 2971 2971 2968 2964 2960 2957 2952 2946 2943 2940 2937 2932 2930 2927 2923 2920 2916 2913
2992 2992 2992 2991 2991 2991 2991 2991 2991 2992 2992 2993 2993 2994 2994 2995 2996 2997 2998 2999 3000 3001 3002 3004 3004 3005 3006 3007 3008 3008 3008 3008 3008 3007 3007 3006 3005 3004 3003 3003 3004 3004 3005 3006 3006 3006 3006 3005 3005 3004 3004 3003 3001 3000 2998 2996 2995 2993 2991 2988 2986 2983 2980 2977 2974 2971 2968 2966 2964 2963 2959 2955 2952 2947 2941 2936 2934 2932 2928 2924 2921 2917 2913 2910 2907
2988 2988 2988 2988 2988 2987 2987 2987 2987 2987 2987 2987 2987 2987 2987 2988 2989 2989 2991 2993 2994 2995 2996 2997 2998 2999 3000 3002 3002 3003 3002 3002 3002 3002 3001 3000 2999 2999 2999 2999 2999 3000 3001 3001 3002 3002 3002 3002 3002 3001 3000 2999 2998 2997 2995 2994 2992 2990 2988 2985 2983 2980 2977 2974 2971 2968 2965 2962 2959 2957 2954 2951 2947 2943 2938 2931 2927 2925 2922 2918 2916 2911 2906 2903 2901
2984 2984 2984 2984 2984 2984 2983 2983 2982 2982 2982 2981 2981 2980 2980 2981 2981 2982 2984 2985 2987 2988 2990 2991 2992 2993 2994 2996 2997 2997 2997 2996 2996 2996 2995 2994 2994 2994 2994 2994 2995 2996 2997 2997 2998 2998 2998 2998 2998 2998 2997 2996 2995 2993 2992 2991 2989 2987 2984 2982 2980 2977 2974 2971 2968 2965 2962 2959 2956 2952 2949 2946 2942 2937 2933 2927 2922 2919 2914 2911 2909 2906 2901 2896 2893
2980 2980 2979 2979 2979 2979 2978 2978 2977 2977 2977 2976 2975 2975 2975 2975 2975 2976 2976 2978 2980 2982 2983 2985 2986 2987 2988 2990 2990 2990 2990 2990 2990 2990 2989 2989 2989 2989 2989 2990 2991 2992 2992 2993 2993 2994 2994 2994 2994 2994 2993 2993 2991 2990 2989 2987 2986 2984 2981 2979 2976 2973 2970 2967 2964 2961 2958 2955 2953 2948 2945 2942 2937 2932 2928 2922 2918 2915 2910 2904 2900 2898 2894 2890 2886
2977 2976 2975 2975 2975 2974 2973 2973 2973 2972 2972 2971 2971 2971 2970 2970 2970 2970 2970 2971 2973 2976 2977 2978 2979 2980 2982 2983 2984 2984 2983 2983 2984 2984 2984 2984 2984 2984 2985 2985 2986 2987 2988 2988 2989 2990 2990 2990 2990 2990 2990 2989 2988 2987 2985 2984 2983 2981 2978 2975 2972 2969 2967 2964 2960 2957 2954 2951 2949 2945 2940 2937 2932 2927 2923 2917 2911 2908 2905 2899 2894 2891 2886 2883 2881
2974 2973 2972 2971 2970 2969 2969 2968 2968 2967 2967 2967 2967 2966 2966 2966 2965 2965 2965 2966 2967 2969 2970 2971 2972 2974 2975 2976 2976 2976 2976 2978 2979 2979 2978 2978 2978 2979 2980 2981 2982 2982 2983 2984 2985 2985 2985 2986 2986 2986 2986 2985 2984 2983 2982 2981 2979 2978 2975 2972 2969 2966 2963 2960 2957 2953 2950 2947 2944 2940 2935 2931 2927 2921 2916 2912 2906 2902 2898 2893 2888 2884 2878 2873 2872
2971 2970 2969 2967 2966 2965 2965 2964 2963 2963 2962 2962 2962 2962 2961 2960 2960 2960 2960 2960 2961 2962 2962 2963 2965 2967 2968 2969 2970 2970 2971 2972 2973 2973 2973 2973 2973 2974 2975 2976 2977 2978 2979 2979 2980 2980 2981 2981 2982 2982 2982 2981 2981 2979 2978 2977 2976 2974 2972 2969 2966 2962 2959 2955 2953 2950 2946 2943 2940 2935 2929 2925 2922 2916 2910 2905 2901 2896 2892 2886 2881 2876 2871 2863 2860
2968 2967 2965 2964 2963 2962 2961 2960 2958 2958 2957 2957 2956 2956 2955 2955 2955 2955 2955 2955 2956 2956 2956 2957 2959 2960 2961 2962 2963 2964 2965 2966 2966 2967 2967 2967 2969 2970 2971 2972 2973 2974 2974 2975 2975 2976 2977 2977 2978 2978 2978 2977 2977 2976 2975 2974 2972 2971 2969 2966 2962 2959 2956 2951 2948 2946 2942 2938 2934 2930 2924 2918 2915 2911 2904 2898 2894 2890 2885 2881 2874 2868 2863 2857 2851
2965 2964 2962 2961 2959 2958 2957 2955 2954 2954 2953 2952 2951 2950 2950 2949 2950 2950 2950 2950 2950 2950 2951 2952 2953 2953 2955 2956 2957 2958 2959 2960 2961 2961 2961 2962 2964 2966 2967 2968 2969 2969 2970 2970 2970 2971 2972 2973 2973 2974 2973 2973 2973 2972 2971 2970 2969 2967 2965 2962 2959 2956 2952 2948 2944 2941 2937 2932 2928 2925 2919 2913 2908 2905 2899 2892 2887 2883 2878 2874 2869 2862 2856 2851 2845
2962 2961 2959 2957 2956 2954 2953 2952 2950 2949 2948 2947 2946 2945 2945 2944 2944 2945 2944 2944 2943 2944 2945 2946 2947 2948 2949 2950 2951 2952 2953 2954 2955 2955 2956 2958 2960 2961 2962 2963 2964 2965 2966 2966 2966 2967 2968 2969 2970 2969 2969 2969 2968 2967 2967 2967 2965 2964 2961 2959 2956 2953 2949 2944 2940 2937 2932 2927 2923 2919 2915 2909 2902 2899 2894 2887 2881 2876 2870 2866 2862 2856 2849 2843 2838
2959 2957 2956 2954 2952 2951 2949 2948 2947 2945 2944 2942 2941 2940 2940 2939 2939 2938 2938 2938 2938 2938 2939 2940 2942 2944 2945 2945 2946 2947 2948 2948 2949 2950 2951 2953 2955 2957 2958 2959 2961 2962 2962 2962 2962 2962 2963 2965 2965 2965 2965 2964 2963 2963 2963 2963 2962 2960 2958 2956 2954 2951 2946 2941 2937 2933 2929 2924 2919 2915 2911 2906 2899 2894 2890 2883 2876 2870 2863 2857 2852 2846 2840 2835 2832
2955 2953 2952 2951 2949 2948 2946 2944 2943 2941 2939 2938 2936 2936 2935 2934 2933 2933 2932 2932 2933 2933 2933 2934 2936 2937 2938 2939 2940 2941 2943 2943 2944 2945 2947 2948 2949 2952 2954 2956 2957 2957 2957 2958 2957 2958 2959 2960 2961 2962 2962 2960 2959 2959 2959 2958 2957 2956 2954 2952 2950 2948 2944 2938 2934 2931 2926 2921 2917 2912 2908 2903 2896 2889 2884 2876 2869 2863 2857 2852 2847 2839 2832 2827 2824
2951 2950 2948 2947 2945 2944 2942 2940 2938 2937 2935 2933 2932 2931 2930 2929 2928 2927 2926 2926 2926 2927 2928 2929 2930 2931 2932 2933 2935 2936 2938 2938 2939 2940 2941 2942 2945 2948 2951 2952 2952 2952 2953 2953 2953 2954 2955 2956 2956 2958 2958 2957 2956 2955 2954 2954 2953 2951 2950 2948 2947 2944 2940 2936 2932 2928 2923 2919 2914 2909 2904 2899 2892 2885 2879 2872 2865 2858 2851 2847 2842 2833 2825 2819 2814
2946 2945 2944 2943 2941 2939 2937 2936 2934 2932 2930 2929 2927 2926 2925 2924 2923 2922 2921 2920 2920 2921 2922 2923 2924 2925 2926 2927 2930 2931 2932 2933 2934 2935 2936 2937 2940 2944 2947 2947 2947 2948 2949 2949 2950 2950 2951 2952 2952 2953 2954 2954 2953 2952 2950 2949 2948 2947 2945 2943 2942 2940 2936 2932 2929 2925 2920 2916 2911 2906 2901 2895 2888 2882 2876 2870 2863 2854 2845 2839 2834 2826 2819 2813 2805
2943 2941 2940 2938 2936 2935 2933 2931 2929 2927 2926 2925 2923 2921 2920 2919 2917 2916 2915 2914 2914 2915 2915 2916 2916 2918 2919 2921 2923 2924 2925 2926 2927 2929 2931 2933 2936 2940 2942 2942 2943 2945 2945 2945 2946 2947 2947 2948 2948 2949 2950 2950 2950 2949 2947 2945 2944 2943 2941 2938 2937 2935 2931 2928 2924 2920 2916 2912 2907 2902 2897 2891 2884 2878 2873 2866 2859 2850 2841 2833 2827 2820 2813 2807 2801
2939 2937 2936 2934 2932 2931 2929 2927 2925 2923 2921 2920 2918 2917 2916 2914 2912 2911 2909 2908 2909 2909 2909 2909 2910 2911 2913 2915 2916 2917 2918 2920 2921 2924 2927 2930 2933 2935 2936 2937 2939 2941 2942 2942 2942 2943 2944 2944 2943 2944 2946 2946 2946 2945 2944 2942 2940 2939 2937 2934 2932 2929 2926 2923 2919 2914 2910 2906 2902 2897 2892 2886 2880 2874 2868 2862 2855 2846 2838 2830 2822 2815 2807 2801 2797
2934 2933 2931 2930 2928 2927 2925 2923 2921 2919 2917 2915 2914 2912 2911 2910 2908 2906 2904 2903 2903 2903 2903 2903 2904 2905 2906 2908 2909 2911 2913 2915 2917 2920 2923 2926 2928 2930 2931 2933 2936 2937 2937 2938 2938 2939 2940 2940 2939 2940 2941 2942 2942 2942 2940 2939 2937 2935 2933 2930 2927 2924 2920 2917 2913 2909 2905 2901 2896 2892 2886 2880 2874 2869 2862 2856 2849 2842 2834 2827 2819 2812 2804 2796 2790
2929 2928 2927 2925 2924 2922 2921 2919 2917 2915 2913 2911 2909 2908 2906 2905 2903 2900 2898 2897 2898 2897 2897 2897 2898 2899 2901 2902 2904 2906 2908 2911 2913 2917 2921 2923 2924 2925 2927 2930 2931 2932 2932 2934 2935 2936 2936 2936 2935 2936 2937 2938 2938 2938 2937 2935 2934 2932 2929 2926 2923 2919 2915 2912 2908 2904 2900 2896 2891 2886 2881 2874 2869 2864 2857 2850 2843 2836 2828 2822 2815 2808 2801 2794 2786
2925 2924 2922 2921 2919 2918 2916 2915 2913 2911 2909 2907 2905 2903 2902 2900 2898 2895 2893 2893 2892 2892 2892 2892 2893 2894 2896 2897 2899 2902 2905 2908 2911 2915 2917 2918 2919 2921 2923 2925 2926 2927 2928 2930 2932 2932 2932 2932 2932 2932 2933 2934 2934 2934 2933 2932 2930 2928 2926 2922 2919 2915 2911 2907 2904 2900 2896 2891 2886 2881 2875 2870 2864 2858 2851 2844 2837 2830 2823 2817 2811 2805 2798 2792 2785
2921 2919 2918 2917 2915 2914 2912 2911 2909 2907 2905 2903 2901 2899 2897 2895 2893 2890 2888 2888 2887 2887 2887 2887 2888 2889 2890 2893 2895 2898 2901 2905 2908 2911 2913 2914 2915 2917 2919 2920 2922 2923 2924 2926 2928 2928 2928 2928 2929 2929 2930 2930 2931 2931 2930 2928 2926 2924 2922 2918 2915 2911 2907 2904 2900 2896 2892 2887 2882 2876 2871 2865 2859 2852 2846 2839 2832 2826 2819 2812 2807 2801 2794 2788 2783
2916 2915 2914 2912 2911 2909 2908 2906 2905 2903 2901 2899 2897 2895 2893 2890 2888 2886 2884 2882 2882 2883 2883 2883 2884 2885 2886 2888 2891 2895 2898 2902 2905 2907 2908 2909 2911 2913 2915 2916 2917 2919 2920 2922 2923 2924 2924 2925 2925 2926 2927 2927 2927 2927 2926 2925 2923 2921 2918 2914 2911 2907 2904 2900 2897 2892 2888 2883 2877 2872 2867 2861 2854 2847 2840 2834 2828 2821 2815 2809 2803 2797 2791 2785 2781
2912 2910 2909 2908 2906 2905 2903 2902 2900 2898 2896 2894 2892 2890 2888 2886 2883 2881 2879 2878 2878 2878 2878 2878 2879 2880 2882 2884 2887 2891 2895 2898 2900 2902 2904 2906 2908 2909 2910 2912 2914 2915 2916 2918 2919 2920 2920 2921 2922 2923 2923 2924 2924 2924 2923 2922 2920 2917 2914 2911 2907 2904 2900 2897 2893 2888 2884 2879 2873 2868 2863 2857 2850 2843 2837 2831 2824 2817 2810 2804 2799 2793 2787 2782 2778
2907 2905 2904 2903 2901 2900 2898 2897 2895 2893 2891 2889 2887 2886 2884 2881 2879 2876 2875 2874 2874 2874 2873 2874 2875 2876 2877 2880 2884 2888 2891 2894 2896 2898 2901 2903 2904 2905 2907 2908 2910 2911 2912 2914 2915 2915 2915 2917 2919 2920 2920 2920 2920 2920 2919 2918 2917 2914 2911 2907 2904 2901 2897 2893 2889 2885 2880 2875 2870 2865 2859 2853 2846 2840 2834 2828 2821 2814 2807 2801 2795 2790 2784 2778 2773
2902 2900 2899 2897 2896 2895 2893 2892 2890 2889 2887 2885 2883 2881 2879 2877 2874 2872 2870 2870 2869 2868 2868 2869 2871 2873 2875 2877 2881 2885 2888 2890 2893 2896 2898 2899 2900 2902 2903 2904 2906 2907 2908 2909 2909 2910 2912 2914 2915 2916 2917 2917 2917 2917 2916 2915 2913 2911 2908 2904 2901 2898 2894 2890 2886 2881 2876 2871 2866 2861 2855 2849 2843 2837 2831 2825 2819 2812 2805 2799 2793 2787 2782 2776 2770
2897 2896 2894 2892 2891 2890 2888 2887 2886 2884 2883 2881 2879 2877 2875 2872 2870 2868 2866 2865 2865 2864 2864 2865 2868 2870 2871 2874 2878 2882 2885 2889 2891 2892 2893 2894 2896 2897 2899 2900 2902 2903 2904 2904 2905 2907 2909 2911 2912 2913 2913 2914 2914 2913 2913 2912 2910 2907 2904 2901 2898 2895 2891 2887 2882 2878 2873 2868 2863 2857 2851 2846 2840 2834 2828 2823 2817 2810 2804 2797 2791 2786 2780 2775 2769
2892 2891 2889 2888 2886 2885 2883 2882 2881 2880 2878 2876 2874 2872 2870 2868 2866 2864 2863 2862 2861 2860 2860 2861 2863 2865 2867 2870 2875 2878 2881 2884 2885 2885 2887 2889 2892 2893 2895 2896 2898 2899 2900 2901 2902 2904 2906 2907 2908 2909 2910 2910 2911 2910 2909 2908 2906 2904 2901 2899 2895 2891 2888 2884 2879 2874 2870 2864 2859 2853 2848 2842 2837 2831 2826 2820 2815 2809 2802 2796 2790 2784 2779 2773 2769
2887 2886 2884 2883 2881 2880 2878 2877 2876 2875 2873 2872 2870 2868 2867 2865 2863 2861 2859 2858 2857 2856 2856 2857 2859 2860 2863 2866 2870 2872 2875 2877 2879 2881 2883 2886 2888 2890 2892 2893 2894 2895 2897 2898 2899 2901 2902 2904 2905 2905 2906 2906 2907 2907 2906 2905 2903 2901 2899 2896 2892 2888 2884 2880 2876 2871 2866 2860 2855 2849 2844 2839 2834 2829 2823 2818 2812 2807 2801 2795 2790 2784 2778 2773 2768
2880 2880 2879 2877 2876 2875 2873 2872 2871 2870 2869 2867 2866 2864 2863 2861 2859 2858 2856 2854 2853 2853 2853 2853 2855 2857 2859 2862 2865 2867 2870 2873 2875 2878 2880 2882 2885 2887 2889 2890 2891 2892 2893 2895 2897 2898 2899 2900 2901 2901 2902 2903 2903 2903 2902 2901 2899 2897 2895 2893 2889 2885 2880 2876 2872 2867 2861 2856 2851 2846 2841 2836 2831 2827 2821 2816 2810 2805 2800 2794 2789 2784 2778 2773 2768
2874 2873 2872 2871 2870 2869 2868 2867 2866 2865 2864 2863 2861 2860 2859 2858 2856 2854 2852 2851 2850 2849 2849 2850 2851 2853 2856 2859 2862 2865 2867 2870 2873 2875 2877 2879 2882 2884 2885 2886 2888 2889 2891 2892 2894 2895 2895 2897 2897 2898 2898 2899 2900 2900 2899 2897 2896 2894 2891 2888 2885 2881 2877 2872 2868 2863 2857 2852 2848 2843 2838 2833 2829 2825 2820 2814 2809 2803 2798 2793 2788 2783 2778 2774 2769
2868 2867 2866 2865 2864 2863 2862 2861 2861 2860 2859 2858 2857 2856 2855 2854 2852 2851 2849 2848 2847 2846 2846 2847 2849 2851 2853 2856 2859 2862 2865 2868 2871 2873 2875 2877 2879 2881 2882 2883 2885 2886 2888 2890 2891 2891 2892 2893 2893 2894 2895 2896 2896 2896 2895 2894 2892 2890 2887 2884 2881 2877 2873 2868 2864 2859 2854 2849 2844 2840 2836 2831 2827 2822 2817 2812 2807 2802 2797 2792 2787 2783 2778 2774 2769
2861 2860 2859 2858 2858 2857 2856 2856 2856 2855 2855 2854 2852 2851 2851 2850 2849 2847 2846 2844 2843 2842 2843 2844 2846 2848 2851 2854 2857 2860 2863 2866 2869 2871 2873 2875 2877 2878 2879 2880 2882 2884 2885 2887 2887 2888 2889 2889 2890 2891 2892 2893 2893 2893 2892 2891 2889 2886 2884 2880 2877 2873 2869 2865 2860 2855 2851 2846 2842 2837 2833 2829 2825 2820 2815 2810 2806 2801 2796 2791 2786 2782 2778 2773 2769
2854 2853 2852 2851 2851 2850 2850 2850 2850 2850 2850 2850 2849 2848 2847 2846 2845 2844 2842 2841 2840 2839 2839 2841 2843 2846 2849 2852 2855 2858 2861 2864 2867 2869 2872 2874 2875 2876 2877 2878 2880 2881 2882 2883 2884 2885 2885 2886 2887 2888 2889 2890 2890 2890 2889 2888 2885 2883 2880 2877 2873 2870 2865 2861 2856 2852 2847 2843 2839 2835 2831 2827 2822 2818 2814 2809 2804 2800 2795 2791 2786 2782 2777 2773 2768
2847 2846 2845 2844 2843 2843 2844 2844 2845 2845 2846 2846 2845 2844 2843 2842 2841 2840 2839 2838 2837 2836 2837 2838 2840 2844 2847 2851 2853 2856 2859 2862 2864 2867 2870 2872 2873 2874 2875 2875 2876 2877 2879 2879 2880 2881 2883 2884 2885 2885 2886 2887 2887 2887 2886 2884 2882 2879 2876 2873 2869 2866 2862 2857 2853 2849 2844 2840 2837 2833 2829 2825 2821 2816 2812 2808 2803 2799 2795 2790 2786 2782 2777 2772 2768
2840 2839 2838 2837 2836 2836 2837 2838 2839 2840 2841 2842 2842 2841 2840 2839 2837 2837 2836 2835 2834 2834 2835 2836 2839 2842 2845 2848 2851 2853 2856 2859 2862 2866 2868 2870 2870 2871 2872 2873 2873 2874 2875 2876 2877 2879 2880 2881 2882 2883 2884 2885 2885 2884 2882 2880 2878 2876 2873 2869 2866 2862 2858 2854 2850 2845 2842 2838 2834 2830 2827 2823 2819 2815 2811 2807 2802 2798 2794 2790 2786 2782 2777 2773 2768
2833 2832 2832 2831 2830 2831 2832 2833 2834 2835 2837 2838 2838 2838 2837 2835 2834 2834 2833 2832 2832 2832 2833 2835 2837 2841 2844 2846 2849 2851 2854 2857 2861 2864 2866 2867 2868 2869 2870 2871 2871 2872 2873 2874 2875 2877 2878 2879 2880 2881 2882 2882 2882 2881 2879 2877 2875 2872 2869 2866 2863 2859 2855 2851 2847 2843 2839 2836 2832 2829 2825 2821 2817 2813 2809 2805 2801 2798 2794 2790 2786 2782 2777 2773 2769
2827 2827 2826 2825 2826 2826 2827 2828 2830 2831 2833 2834 2835 2834 2834 2833 2832 2831 2830 2830 2830 2831 2832 2833 2836 2840 2843 2845 2847 2850 2853 2856 2859 2861 2863 2864 2866 2867 2868 2868 2869 2870 2871 2872 2874 2875 2876 2877 2878 2879 2880 2880 2879 2878 2876 2874 2872 2869 2866 2863 2859 2856 2852 2848 2844 2841 2837 2834 2830 2827 2823 2820 2816 2812 2808 2804 2800 2797 2793 2789 2785 2781 2777 2773 2769
2823 2822 2822 2822 2822 2823 2824 2825 2826 2827 2829 2830 2831 2831 2831 2830 2830 2829 2828 2828 2828 2829 2830 2832 2835 2838 2841 2844 2846 2849 2851 2854 2856 2858 2860 2862 2864 2865 2866 2866 2867 2868 2869 2870 2872 2873 2874 2875 2876 2877 2877 2877 2876 2875 2873 2871 2868 2866 2863 2860 2856 2853 2849 2845 2842 2838 2835 2832 2828 2825 2822 2818 2815 2811 2807 2804 2800 2796 2792 2789 2785 2780 2776 2772 2769
2820 2819 2819 2819 2819 2820 2821 2822 2823 2825 2826 2827 2828 2829 2828 2828 2827 2827 2826 2826 2826 2828 2829 2831 2834 2837 2840 2842 2845 2847 2849 2852 2854 2856 2858 2860 2861 2862 2863 2864 2865 2866 2867 2869 2870 2871 2872 2874 2875 2875 2875 2874 2873 2872 2870 2868 2865 2863 2860 2857 2853 2850 2846 2843 2839 2836 2833 2830 2827 2824 2821 2817 2814 2810 2807 2803 2799 2796 2792 2788 2784 2780 2776 2772 2768
2818 2818 2817 2817 2818 2818 2819 2820 2821 2822 2824 2825 2826 2826 2826 2826 2825 2824 2824 2824 2825 2826 2828 2830 2833 2836 2838 2841 2843 2846 2848 2850 2852 2854 2856 2857 2859 2860 2861 2862 2863 2864 2866 2867 2868 2870 2871 2872 2872 2872 2872 2871 2870 2869 2867 2865 2862 2860 2857 2854 2850 2847 2844 2841 2838 2834 2831 2828 2826 2823 2820 2816 2813 2810 2806 2802 2799 2795 2792 2788 2784 2780 2776 2772 2769
2817 2817 2816 2816 2816 2817 2817 2818 2819 2820 2821 2823 2823 2824 2824 2823 2823 2822 2822 2822 2824 2825 2827 2829 2832 2835 2838 2840 2842 2844 2847 2849 2851 2852 2854 2855 2856 2858 2859 2860 2862 2863 2864 2865 2867 2868 2869 2870 2870 2870 2870 2869 2868 2866 2864 2862 2860 2857 2854 2851 2848 2845 2842 2839 2836 2833 2830 2827 2825 2822 2819 2816 2812 2809 2805 2802 2799 2795 2792 2788 2785 2781 2777 2773 2769
2816 2816 2815 2815 2815 2816 2816 2817 2817 2819 2820 2821 2821 2822 2822 2821 2821 2820 2820 2821 2822 2824 2826 2828 2831 2834 2837 2839 2841 2843 2845 2847 2849 2850 2852 2853 2854 2855 2857 2859 2860 2861 2863 2864 2865 2867 2867 2868 2868 2868 2867 2866 2865 2864 2862 2860 2857 2855 2852 2849 2846 2843 2840 2837 2834 2832 2829 2826 2824 2821 2818 2815 2812 2808 2805 2802 2798 2795 2792 2788 2785 2781 2777 2773 2769
2815 2815 2815 2814 2814 2815 2815 2816 2817 2817 2818 2819 2819 2820 2820 2819 2818 2818 2818 2819 2821 2823 2825 2828 2831 2834 2837 2838 2840 2841 2843 2845 2847 2848 2849 2851 2852 2854 2856 2857 2859 2860 2861 2863 2864 2865 2866 2866 2866 2866 2865 2864 2863 2861 2859 2857 2855 2852 2849 2847 2844 2841 2838 2836 2833 2830 2828 2826 2823 2820 2817 2814 2811 2808 2804 2801 2798 2795 2792 2788 2785 2781 2777 2774 2770
2814 2814 2813 2813 2814 2814 2815 2815 2815 2816 2817 2817 2818 2818 2818 2817 2816 2816 2817 2818 2820 2822 2824 2828 2831 2834 2836 2837 2838 2840 2841 2843 2845 2846 2847 2849 2850 2852 2854 2856 2857 2859 2860 2862 2863 2863 2864 2864 2864 2863 2863 2862 2860 2859 2857 2855 2853 2850 2847 2845 2842 2840 2837 2834 2832 2829 2827 2825 2822 2820 2817 2814 2810 2807 2804 2801 2798 2795 2791 2788 2785 2781 2778 2774 2771
2814 2813 2812 2812 2813 2813 2814 2814 2814 2815 2815 2816 2816 2816 2816 2815 2814 2814 2815 2817 2819 2822 2824 2827 2830 2832 2834 2836 2837 2838 2840 2841 2843 2844 2846 2847 2849 2851 2853 2855 2856 2858 2859 2860 2861 2862 2862 2862 2862 2861 2861 2859 2858 2856 2855 2853 2850 2848 2845 2843 2841 2838 2836 2833 2831 2829 2826 2824 2822 2819 2816 2813 2810 2807 2804 2801 2798 2795 2792 2788 2785 2781 2778 2775 2771
2813 2812 2812 2812 2812 2812 2813 2813 2813 2814 2814 2814 2814 2814 2814 2813 2812 2813 2814 2816 2819 2821 2824 2826 2829 2831 2833 2834 2836 2837 2839 2840 2841 2843 2844 2846 2848 2850 2852 2854 2855 2857 2858 2859 2859 2860 2860 2860 2860 2859 2858 2857 2856 2854 2853 2851 2848 2846 2844 2842 2839 2837 2835 2832 2830 2828 2826 2823 2821 2818 2816 2813 2809 2806 2803 2801 2798 2795 2792 2789 2785 2782 2779 2775 2772
2812 2811 2811 2811 2811 2811 2811 2812 2812 2812 2812 2812 2813 2812 2812 2811 2811 2812 2813 2816 2819 2821 2823 2825 2827 2829 2831 2833 2834 2836 2837 2838 2840 2841 2843 2844 2847 2849 2851 2853 2855 2856 2856 2857 2858 2858 2859 2859 2858 2858 2856 2855 2854 2852 2851 2849 2847 2844 2842 2840 2838 2836 2834 2832 2830 2827 2825 2823 2820 2818 2815 2812 2809 2806 2803 2801 2798 2795 2792 2789 2786 2783 2779 2776 2772
2810 2809 2809 2809 2809 2809 2810 2810 2810 2810 2811 2811 2811 2811 2810 2809 2810 2811 2813 2816 2818 2820 2822 2824 2826 2828 2830 2831 2833 2834 2836 2837 2838 2840 2841 2844 2846 2848 2850 2852 2853 2854 2855 2856 2857 2857 2857 2857 2857 2856 2855 2853 2852 2851 2849 2847 2845 2843 2841 2839 2837 2835 2833 2831 2829 2827 2825 2822 2820 2817 2814 2811 2809 2806 2803 2801 2798 2795 2792 2789 2786 2783 2780 2777 2773